Time,TemperatureF,DewpointF,PressureIn,WindDirection,WindDirectionDegrees,WindSpeedMPH,WindSpeedGustMPH,Humidity,HourlyPrecipIn,Conditions,Clouds,dailyrainin,SolarRadiationWatts/m^2,SoftwareType,DateUTC
2013-09-11 00:04:00,74.4,59.6,29.06,West,259,0.0,-999.0,60,0.00,,,0.00,0,WeatherHawk,2013-09-11 05:04:00,
2013-09-11 00:09:00,75.6,60.7,29.06,West,259,0.0,-999.0,60,0.00,,,0.00,0,WeatherHawk,2013-09-11 05:09:00,
2013-09-11 00:14:00,75.1,59.8,29.06,West,259,0.0,-999.0,59,0.00,,,0.00,0,WeatherHawk,2013-09-11 05:14:00,
2013-09-11 00:19:00,74.4,59.1,29.05,West,259,0.0,-999.0,59,0.00,,,0.00,1,WeatherHawk,2013-09-11 05:19:00,
2013-09-11 00:24:00,73.7,59.9,29.06,SW,228,0.0,-999.0,62,0.00,,,0.00,0,WeatherHawk,2013-09-11 05:24:00,
2013-09-11 00:29:00,72.5,59.6,29.06,WSW,247,2.0,-999.0,64,0.00,,,0.00,0,WeatherHawk,2013-09-11 05:29:00,
2013-09-11 00:34:00,73.1,60.7,29.07,WSW,244,0.0,-999.0,65,0.00,,,0.00,0,WeatherHawk,2013-09-11 05:34:00,
2013-09-11 00:39:00,72.7,59.8,29.06,WSW,244,0.0,-999.0,64,0.00,,,0.00,0,WeatherHawk,2013-09-11 05:39:00,
2013-09-11 00:44:00,72.6,60.6,29.07,South,180,0.0,-999.0,66,0.00,,,0.00,1,WeatherHawk,2013-09-11 05:44:00,
2013-09-11 00:49:00,73.0,60.5,29.06,WSW,241,0.0,-999.0,65,0.00,,,0.00,0,WeatherHawk,2013-09-11 05:49:00,
2013-09-11 00:54:00,71.6,60.9,29.07,WSW,251,0.0,-999.0,69,0.00,,,0.00,0,WeatherHawk,2013-09-11 05:54:00,
2013-09-11 00:59:00,72.4,61.7,29.06,WSW,251,0.0,-999.0,69,0.00,,,0.00,0,WeatherHawk,2013-09-11 05:59:00,
2013-09-11 01:04:00,72.4,60.8,29.07,WSW,251,0.0,-999.0,67,0.00,,,0.00,0,WeatherHawk,2013-09-11 06:04:00,
2013-09-11 01:09:00,72.5,59.6,29.07,WSW,251,0.0,-999.0,64,0.00,,,0.00,1,WeatherHawk,2013-09-11 06:09:00,
2013-09-11 01:14:00,72.1,59.7,29.07,WSW,251,0.0,-999.0,65,0.00,,,0.00,0,WeatherHawk,2013-09-11 06:14:00,
2013-09-11 01:19:00,72.0,59.6,29.07,WSW,239,0.0,-999.0,65,0.00,,,0.00,0,WeatherHawk,2013-09-11 06:19:00,
2013-09-11 01:24:00,72.8,60.3,29.07,WSW,239,0.0,-999.0,65,0.00,,,0.00,0,WeatherHawk,2013-09-11 06:24:00,
2013-09-11 01:29:00,72.0,59.5,29.07,WSW,239,0.0,-999.0,65,0.00,,,0.00,0,WeatherHawk,2013-09-11 06:29:00,
2013-09-11 01:34:00,72.1,58.8,29.07,SW,227,1.0,-999.0,63,0.00,,,0.00,0,WeatherHawk,2013-09-11 06:34:00,
2013-09-11 01:39:00,72.2,58.4,29.08,WSW,246,2.0,-999.0,62,0.00,,,0.00,0,WeatherHawk,2013-09-11 06:39:00,
2013-09-11 01:44:00,73.1,58.4,29.08,SW,223,2.0,-999.0,60,0.00,,,0.00,0,WeatherHawk,2013-09-11 06:44:00,
2013-09-11 01:49:00,73.2,57.5,29.07,WSW,255,2.0,-999.0,58,0.00,,,0.00,1,WeatherHawk,2013-09-11 06:49:00,
2013-09-11 01:54:00,73.3,57.7,29.07,WNW,290,0.0,-999.0,58,0.00,,,0.00,0,WeatherHawk,2013-09-11 06:54:00,
2013-09-11 01:59:00,72.8,59.4,29.06,WNW,290,0.0,-999.0,63,0.00,,,0.00,0,WeatherHawk,2013-09-11 06:59:00,
2013-09-11 02:04:00,72.1,59.2,29.06,WNW,290,0.0,-999.0,64,0.00,,,0.00,0,WeatherHawk,2013-09-11 07:04:00,
2013-09-11 02:09:00,73.2,60.7,29.07,WNW,290,0.0,-999.0,65,0.00,,,0.00,0,WeatherHawk,2013-09-11 07:09:00,
2013-09-11 02:14:00,72.2,58.4,29.07,SW,223,0.0,-999.0,62,0.00,,,0.00,0,WeatherHawk,2013-09-11 07:14:00,
2013-09-11 02:19:00,72.7,58.5,29.07,SW,223,0.0,-999.0,61,0.00,,,0.00,0,WeatherHawk,2013-09-11 07:19:00,
2013-09-11 02:24:00,71.9,58.1,29.07,SW,223,0.0,-999.0,62,0.00,,,0.00,0,WeatherHawk,2013-09-11 07:24:00,
2013-09-11 02:29:00,72.1,57.9,29.07,SW,223,0.0,-999.0,61,0.00,,,0.00,0,WeatherHawk,2013-09-11 07:29:00,
2013-09-11 02:34:00,72.5,58.7,29.07,SW,223,0.0,-999.0,62,0.00,,,0.00,0,WeatherHawk,2013-09-11 07:34:00,
2013-09-11 02:39:00,72.2,58.9,29.07,SW,223,0.0,-999.0,63,0.00,,,0.00,1,WeatherHawk,2013-09-11 07:39:00,
2013-09-11 02:44:00,72.0,58.7,29.07,SW,223,0.0,-999.0,63,0.00,,,0.00,0,WeatherHawk,2013-09-11 07:44:00,
2013-09-11 02:49:00,71.7,59.3,29.07,SE,143,4.0,-999.0,65,0.00,,,0.00,0,WeatherHawk,2013-09-11 07:49:00,
2013-09-11 02:54:00,70.4,60.1,29.07,East,95,2.0,-999.0,70,0.00,,,0.00,1,WeatherHawk,2013-09-11 07:54:00,
2013-09-11 02:59:00,70.9,61.0,29.07,East,95,0.0,-999.0,71,0.00,,,0.00,0,WeatherHawk,2013-09-11 07:59:00,
2013-09-11 03:04:00,70.3,63.4,29.07,East,95,0.0,-999.0,79,0.00,,,0.00,0,WeatherHawk,2013-09-11 08:04:00,
2013-09-11 03:09:00,70.7,62.3,29.07,ESE,111,0.0,-999.0,75,0.00,,,0.00,0,WeatherHawk,2013-09-11 08:09:00,
2013-09-11 03:14:00,71.8,60.7,29.10,WSW,250,3.0,-999.0,68,0.00,,,0.00,0,WeatherHawk,2013-09-11 08:14:00,
2013-09-11 03:19:00,70.2,61.5,29.09,SE,145,4.0,-999.0,74,0.08,,,0.08,0,WeatherHawk,2013-09-11 08:19:00,
2013-09-11 03:24:00,68.1,62.4,29.08,SSE,166,4.0,-999.0,82,0.08,,,0.08,0,WeatherHawk,2013-09-11 08:24:00,
2013-09-11 03:29:00,68.8,63.4,29.07,ENE,77,0.0,-999.0,83,0.04,,,0.08,0,WeatherHawk,2013-09-11 08:29:00,
2013-09-11 03:34:00,67.6,64.2,29.07,SE,131,5.0,-999.0,89,0.00,,,0.08,0,WeatherHawk,2013-09-11 08:34:00,
2013-09-11 03:39:00,67.8,64.8,29.07,East,88,4.0,-999.0,90,0.00,,,0.08,0,WeatherHawk,2013-09-11 08:39:00,
2013-09-11 03:44:00,68.0,65.0,29.07,SE,136,0.0,-999.0,90,0.00,,,0.08,0,WeatherHawk,2013-09-11 08:44:00,
2013-09-11 03:49:00,68.2,65.5,29.08,WSW,246,0.0,-999.0,91,0.00,,,0.08,0,WeatherHawk,2013-09-11 08:49:00,
2013-09-11 03:54:00,68.6,65.9,29.10,WNW,291,5.0,-999.0,91,0.00,,,0.08,1,WeatherHawk,2013-09-11 08:54:00,
2013-09-11 03:59:00,67.9,65.8,29.09,WSW,255,4.0,-999.0,93,0.00,,,0.08,0,WeatherHawk,2013-09-11 08:59:00,
2013-09-11 04:04:00,67.6,65.8,29.10,SW,235,2.0,-999.0,94,0.00,,,0.08,0,WeatherHawk,2013-09-11 09:04:00,
2013-09-11 04:09:00,68.5,65.5,29.08,East,83,4.0,-999.0,90,0.00,,,0.08,0,WeatherHawk,2013-09-11 09:09:00,
2013-09-11 04:14:00,67.6,65.8,29.09,ESE,107,0.0,-999.0,94,0.00,,,0.08,0,WeatherHawk,2013-09-11 09:14:00,
2013-09-11 04:19:00,67.9,66.4,29.09,West,281,0.0,-999.0,95,0.00,,,0.08,0,WeatherHawk,2013-09-11 09:19:00,
2013-09-11 04:24:00,68.2,66.1,29.09,SSE,160,1.0,-999.0,93,0.00,,,0.08,0,WeatherHawk,2013-09-11 09:24:00,
2013-09-11 04:29:00,67.6,64.9,29.08,South,176,0.0,-999.0,91,0.00,,,0.08,0,WeatherHawk,2013-09-11 09:29:00,
2013-09-11 04:34:00,67.9,65.5,29.09,South,176,0.0,-999.0,92,0.00,,,0.08,1,WeatherHawk,2013-09-11 09:34:00,
2013-09-11 04:39:00,68.4,65.6,29.09,NW,312,3.0,-999.0,91,0.00,,,0.08,0,WeatherHawk,2013-09-11 09:39:00,
2013-09-11 04:44:00,68.0,66.8,29.09,West,266,0.0,-999.0,96,0.00,,,0.08,0,WeatherHawk,2013-09-11 09:44:00,
2013-09-11 04:49:00,67.9,66.8,29.09,SSE,168,2.0,-999.0,96,0.00,,,0.08,0,WeatherHawk,2013-09-11 09:49:00,
2013-09-11 04:54:00,68.0,66.8,29.10,WSW,247,0.0,-999.0,96,0.00,,,0.08,0,WeatherHawk,2013-09-11 09:54:00,
2013-09-11 04:59:00,68.3,67.1,29.09,WSW,243,0.0,-999.0,96,0.00,,,0.08,0,WeatherHawk,2013-09-11 09:59:00,
2013-09-11 05:04:00,67.9,66.7,29.09,East,89,3.0,-999.0,96,0.00,,,0.08,0,WeatherHawk,2013-09-11 10:04:00,
2013-09-11 05:09:00,67.9,67.4,29.10,SE,124,0.0,-999.0,98,0.00,,,0.08,0,WeatherHawk,2013-09-11 10:09:00,
2013-09-11 05:14:00,68.5,67.6,29.09,SSE,148,0.0,-999.0,97,0.00,,,0.08,0,WeatherHawk,2013-09-11 10:14:00,
2013-09-11 05:19:00,67.5,66.9,29.12,SSW,197,12.0,-999.0,98,0.00,,,0.08,0,WeatherHawk,2013-09-11 10:19:00,
2013-09-11 05:24:00,68.1,67.5,29.15,SSW,200,10.0,-999.0,98,0.00,,,0.08,0,WeatherHawk,2013-09-11 10:24:00,
2013-09-11 05:29:00,68.5,66.0,29.16,SSW,193,12.0,-999.0,92,0.04,,,0.12,0,WeatherHawk,2013-09-11 10:29:00,
2013-09-11 05:34:00,65.7,64.5,29.17,SSE,153,15.0,-999.0,96,0.08,,,0.16,0,WeatherHawk,2013-09-11 10:34:00,
2013-09-11 05:39:00,66.9,66.9,29.17,SSW,208,5.0,-999.0,100,0.12,,,0.20,0,WeatherHawk,2013-09-11 10:39:00,
2013-09-11 05:44:00,67.0,67.0,29.16,SSW,198,5.0,-999.0,100,0.16,,,0.31,1,WeatherHawk,2013-09-11 10:44:00,
2013-09-11 05:49:00,67.0,67.0,29.16,SE,131,3.0,-999.0,100,0.12,,,0.31,0,WeatherHawk,2013-09-11 10:49:00,
2013-09-11 05:54:00,67.4,66.8,29.15,West,268,4.0,-999.0,98,0.04,,,0.31,0,WeatherHawk,2013-09-11 10:54:00,
2013-09-11 05:59:00,67.4,65.9,29.16,ENE,68,2.0,-999.0,95,0.00,,,0.31,0,WeatherHawk,2013-09-11 10:59:00,
2013-09-11 06:04:00,67.4,65.6,29.14,East,97,9.0,-999.0,94,0.00,,,0.31,1,WeatherHawk,2013-09-11 11:04:00,
2013-09-11 06:09:00,67.4,65.3,29.14,East,83,7.0,-999.0,93,0.00,,,0.31,0,WeatherHawk,2013-09-11 11:09:00,
2013-09-11 06:14:00,67.4,64.7,29.14,SE,136,9.0,-999.0,91,0.00,,,0.31,0,WeatherHawk,2013-09-11 11:14:00,
2013-09-11 06:19:00,67.4,64.3,29.14,ESE,120,5.0,-999.0,90,0.00,,,0.31,0,WeatherHawk,2013-09-11 11:19:00,
2013-09-11 06:24:00,67.3,64.3,29.13,ENE,72,4.0,-999.0,90,0.00,,,0.31,0,WeatherHawk,2013-09-11 11:24:00,
2013-09-11 06:29:00,67.0,64.6,29.13,East,90,3.0,-999.0,92,0.00,,,0.31,1,WeatherHawk,2013-09-11 11:29:00,
2013-09-11 06:34:00,67.2,64.8,29.13,East,81,0.0,-999.0,92,0.00,,,0.31,0,WeatherHawk,2013-09-11 11:34:00,
2013-09-11 06:39:00,67.2,65.1,29.12,SSW,203,1.0,-999.0,93,0.00,,,0.31,0,WeatherHawk,2013-09-11 11:39:00,
2013-09-11 06:44:00,66.8,65.3,29.13,NW,305,3.0,-999.0,95,0.00,,,0.31,2,WeatherHawk,2013-09-11 11:44:00,
2013-09-11 06:49:00,66.6,65.7,29.12,NNW,346,4.0,-999.0,97,0.00,,,0.31,4,WeatherHawk,2013-09-11 11:49:00,
2013-09-11 06:54:00,66.7,66.1,29.13,WSW,249,0.0,-999.0,98,0.00,,,0.31,11,WeatherHawk,2013-09-11 11:54:00,
2013-09-11 06:59:00,67.0,66.7,29.12,WSW,249,0.0,-999.0,99,0.00,,,0.31,18,WeatherHawk,2013-09-11 11:59:00,
2013-09-11 07:04:00,66.9,66.3,29.11,WSW,249,0.0,-999.0,98,0.00,,,0.31,24,WeatherHawk,2013-09-11 12:04:00,
2013-09-11 07:09:00,66.6,66.0,29.12,NNW,343,2.0,-999.0,98,0.00,,,0.31,30,WeatherHawk,2013-09-11 12:09:00,
2013-09-11 07:14:00,66.2,66.2,29.11,WNW,297,0.0,-999.0,100,0.00,,,0.31,38,WeatherHawk,2013-09-11 12:14:00,
2013-09-11 07:19:00,66.2,66.2,29.12,NW,312,3.0,-999.0,100,0.00,,,0.31,44,WeatherHawk,2013-09-11 12:19:00,
2013-09-11 07:24:00,66.5,66.5,29.12,West,277,3.0,-999.0,100,0.00,,,0.31,47,WeatherHawk,2013-09-11 12:24:00,
2013-09-11 07:34:00,66.2,66.2,29.11,South,189,3.0,-999.0,100,0.00,,,0.31,61,WeatherHawk,2013-09-11 12:34:00,
2013-09-11 07:39:00,67.2,66.9,29.12,WSW,253,2.0,-999.0,99,0.00,,,0.31,102,WeatherHawk,2013-09-11 12:39:00,
2013-09-11 07:49:00,66.8,66.3,29.12,SW,219,2.0,-999.0,98,0.00,,,0.31,113,WeatherHawk,2013-09-11 12:49:00,
2013-09-11 07:54:00,67.4,66.2,29.12,WSW,245,0.0,-999.0,96,0.00,,,0.31,121,WeatherHawk,2013-09-11 12:54:00,
2013-09-11 07:59:00,67.4,65.3,29.12,SE,137,3.0,-999.0,93,0.00,,,0.31,144,WeatherHawk,2013-09-11 12:59:00,
2013-09-11 08:04:00,67.5,65.1,29.12,SE,126,3.0,-999.0,92,0.00,,,0.31,146,WeatherHawk,2013-09-11 13:04:00,
2013-09-11 08:09:00,67.9,64.9,29.12,SSE,148,3.0,-999.0,90,0.00,,,0.31,246,WeatherHawk,2013-09-11 13:09:00,
2013-09-11 08:14:00,68.6,63.9,29.12,SE,138,3.0,-999.0,85,0.00,,,0.31,285,WeatherHawk,2013-09-11 13:14:00,
2013-09-11 08:19:00,69.1,63.7,29.12,SW,216,2.0,-999.0,83,0.00,,,0.31,275,WeatherHawk,2013-09-11 13:19:00,
2013-09-11 08:24:00,70.5,65.0,29.12,WSW,238,0.0,-999.0,83,0.00,,,0.31,189,WeatherHawk,2013-09-11 13:24:00,
2013-09-11 08:29:00,71.1,65.7,29.12,SW,229,1.0,-999.0,83,0.00,,,0.31,241,WeatherHawk,2013-09-11 13:29:00,
2013-09-11 08:34:00,69.1,63.4,29.11,SE,144,2.0,-999.0,82,0.00,,,0.31,178,WeatherHawk,2013-09-11 13:34:00,
2013-09-11 08:39:00,70.2,62.6,29.12,SSW,213,6.0,-999.0,77,0.00,,,0.31,312,WeatherHawk,2013-09-11 13:39:00,
2013-09-11 08:44:00,70.8,63.2,29.12,SSW,207,4.0,-999.0,77,0.00,,,0.31,320,WeatherHawk,2013-09-11 13:44:00,
2013-09-11 08:49:00,72.2,64.6,29.11,WSW,240,4.0,-999.0,77,0.00,,,0.31,361,WeatherHawk,2013-09-11 13:49:00,
2013-09-11 08:54:00,71.6,63.3,29.12,West,265,4.0,-999.0,75,0.00,,,0.31,359,WeatherHawk,2013-09-11 13:54:00,
2013-09-11 08:59:00,69.7,60.2,29.12,SSW,205,7.0,-999.0,72,0.00,,,0.31,276,WeatherHawk,2013-09-11 13:59:00,
2013-09-11 09:04:00,71.4,61.9,29.12,SW,222,6.0,-999.0,72,0.00,,,0.31,503,WeatherHawk,2013-09-11 14:04:00,
2013-09-11 09:14:00,70.8,60.9,29.12,SSW,207,4.0,-999.0,71,0.00,,,0.31,264,WeatherHawk,2013-09-11 14:14:00,
2013-09-11 09:19:00,71.0,61.5,29.11,SW,220,8.0,-999.0,72,0.00,,,0.31,365,WeatherHawk,2013-09-11 14:19:00,
2013-09-11 09:24:00,70.5,61.4,29.12,SW,215,6.0,-999.0,73,0.00,,,0.31,194,WeatherHawk,2013-09-11 14:24:00,
2013-09-11 09:29:00,70.8,62.5,29.12,SSW,209,6.0,-999.0,75,0.00,,,0.31,313,WeatherHawk,2013-09-11 14:29:00,
2013-09-11 09:34:00,72.4,63.2,29.12,SW,225,6.0,-999.0,73,0.00,,,0.31,478,WeatherHawk,2013-09-11 14:34:00,
2013-09-11 09:39:00,71.2,61.7,29.11,SW,215,8.0,-999.0,72,0.00,,,0.31,418,WeatherHawk,2013-09-11 14:39:00,
2013-09-11 09:44:00,73.4,62.2,29.11,WSW,246,4.0,-999.0,68,0.00,,,0.31,510,WeatherHawk,2013-09-11 14:44:00,
2013-09-11 09:49:00,73.8,61.3,29.12,SW,224,5.0,-999.0,65,0.00,,,0.31,580,WeatherHawk,2013-09-11 14:49:00,
2013-09-11 09:54:00,75.0,62.0,29.12,SSW,211,6.0,-999.0,64,0.00,,,0.31,594,WeatherHawk,2013-09-11 14:54:00,
2013-09-11 09:59:00,74.4,60.5,29.13,SSW,213,4.0,-999.0,62,0.00,,,0.31,625,WeatherHawk,2013-09-11 14:59:00,
2013-09-11 10:04:00,74.6,59.3,29.12,SW,214,5.0,-999.0,59,0.00,,,0.31,618,WeatherHawk,2013-09-11 15:04:00,
2013-09-11 10:09:00,74.3,58.5,29.12,SW,224,9.0,-999.0,58,0.00,,,0.31,502,WeatherHawk,2013-09-11 15:09:00,
2013-09-11 10:14:00,75.2,60.4,29.12,West,266,4.0,-999.0,60,0.00,,,0.31,427,WeatherHawk,2013-09-11 15:14:00,
2013-09-11 10:19:00,74.0,58.3,29.13,SSW,206,6.0,-999.0,58,0.00,,,0.31,528,WeatherHawk,2013-09-11 15:19:00,
2013-09-11 10:24:00,74.8,58.5,29.12,SSW,211,5.0,-999.0,57,0.00,,,0.31,590,WeatherHawk,2013-09-11 15:24:00,
2013-09-11 10:30:00,76.3,59.4,29.11,WSW,254,5.0,-999.0,56,0.00,,,0.31,519,WeatherHawk,2013-09-11 15:30:00,
2013-09-11 10:39:00,75.3,56.4,29.13,SW,215,6.0,-999.0,52,0.00,,,0.31,347,WeatherHawk,2013-09-11 15:39:00,
2013-09-11 10:44:00,75.4,58.1,29.13,SW,224,5.0,-999.0,55,0.00,,,0.31,414,WeatherHawk,2013-09-11 15:44:00,
2013-09-11 10:49:00,76.4,59.0,29.13,SW,221,5.0,-999.0,55,0.00,,,0.31,481,WeatherHawk,2013-09-11 15:49:00,
2013-09-11 10:54:00,74.7,56.4,29.12,SSW,211,8.0,-999.0,53,0.00,,,0.31,436,WeatherHawk,2013-09-11 15:54:00,
2013-09-11 10:59:00,75.8,59.0,29.16,SW,217,3.0,-999.0,56,0.00,,,0.31,527,WeatherHawk,2013-09-11 15:59:00,
2013-09-11 11:04:00,76.9,57.9,29.16,SW,217,4.0,-999.0,52,0.00,,,0.31,438,WeatherHawk,2013-09-11 16:04:00,
2013-09-11 11:09:00,76.4,56.9,29.15,SW,225,2.0,-999.0,51,0.00,,,0.31,447,WeatherHawk,2013-09-11 16:09:00,
2013-09-11 11:14:00,75.7,55.7,29.16,SSW,203,6.0,-999.0,50,0.00,,,0.31,514,WeatherHawk,2013-09-11 16:14:00,
2013-09-11 11:19:00,76.8,57.3,29.15,SW,224,5.0,-999.0,51,0.00,,,0.31,576,WeatherHawk,2013-09-11 16:19:00,
2013-09-11 11:24:00,76.8,57.3,29.15,WSW,241,6.0,-999.0,51,0.00,,,0.31,402,WeatherHawk,2013-09-11 16:24:00,
2013-09-11 11:29:00,76.4,56.3,29.15,West,269,0.0,-999.0,50,0.00,,,0.31,370,WeatherHawk,2013-09-11 16:29:00,
2013-09-11 11:34:00,77.1,57.0,29.16,NW,314,5.0,-999.0,50,0.00,,,0.31,382,WeatherHawk,2013-09-11 16:34:00,
2013-09-11 11:39:00,76.2,56.2,29.16,SSW,212,5.0,-999.0,50,0.00,,,0.31,338,WeatherHawk,2013-09-11 16:39:00,
2013-09-11 11:44:00,76.3,56.8,29.15,SW,222,4.0,-999.0,51,0.00,,,0.31,310,WeatherHawk,2013-09-11 16:44:00,
2013-09-11 11:49:00,77.1,58.6,29.16,SSW,209,5.0,-999.0,53,0.00,,,0.31,309,WeatherHawk,2013-09-11 16:49:00,
2013-09-11 11:59:00,76.0,59.2,29.16,West,270,4.0,-999.0,56,0.00,,,0.31,275,WeatherHawk,2013-09-11 16:59:00,
2013-09-11 12:04:00,76.9,59.0,29.16,SW,226,6.0,-999.0,54,0.00,,,0.31,311,WeatherHawk,2013-09-11 17:04:00,
2013-09-11 12:09:00,75.0,57.7,29.14,SSW,209,4.0,-999.0,55,0.00,,,0.31,311,WeatherHawk,2013-09-11 17:09:00,
2013-09-11 12:14:00,74.8,58.0,29.15,SSW,205,7.0,-999.0,56,0.00,,,0.31,476,WeatherHawk,2013-09-11 17:14:00,
2013-09-11 12:19:00,76.3,58.9,29.13,SW,230,5.0,-999.0,55,0.00,,,0.31,365,WeatherHawk,2013-09-11 17:19:00,
2013-09-11 12:24:00,77.4,59.4,29.12,SW,222,3.0,-999.0,54,0.00,,,0.31,636,WeatherHawk,2013-09-11 17:24:00,
2013-09-11 12:29:00,76.3,57.4,29.12,SW,219,12.0,-999.0,52,0.00,,,0.31,553,WeatherHawk,2013-09-11 17:29:00,
2013-09-11 12:34:00,76.3,57.4,29.13,SW,230,9.0,-999.0,52,0.00,,,0.31,409,WeatherHawk,2013-09-11 17:34:00,
2013-09-11 12:39:00,77.7,59.7,29.13,SSW,205,3.0,-999.0,54,0.00,,,0.31,420,WeatherHawk,2013-09-11 17:39:00,
2013-09-11 12:44:00,76.7,56.6,29.12,SSW,202,6.0,-999.0,50,0.00,,,0.31,377,WeatherHawk,2013-09-11 17:44:00,
2013-09-11 12:49:00,78.6,59.5,29.13,SSW,203,3.0,-999.0,52,0.00,,,0.31,328,WeatherHawk,2013-09-11 17:49:00,
2013-09-11 12:54:00,78.4,58.8,29.12,WNW,291,4.0,-999.0,51,0.00,,,0.31,355,WeatherHawk,2013-09-11 17:54:00,
2013-09-11 12:59:00,76.6,58.6,29.13,SW,229,6.0,-999.0,54,0.00,,,0.31,382,WeatherHawk,2013-09-11 17:59:00,
2013-09-11 13:04:00,75.5,58.2,29.13,South,178,5.0,-999.0,55,0.00,,,0.31,571,WeatherHawk,2013-09-11 18:04:00,
2013-09-11 13:09:00,77.8,59.8,29.13,SW,230,6.0,-999.0,54,0.00,,,0.31,404,WeatherHawk,2013-09-11 18:09:00,
2013-09-11 13:14:00,78.5,59.4,29.13,SSW,201,6.0,-999.0,52,0.00,,,0.31,559,WeatherHawk,2013-09-11 18:14:00,
2013-09-11 13:19:00,77.2,57.7,29.12,WSW,240,6.0,-999.0,51,0.00,,,0.31,417,WeatherHawk,2013-09-11 18:19:00,
2013-09-11 13:24:00,77.0,57.5,29.11,WNW,295,2.0,-999.0,51,0.00,,,0.31,375,WeatherHawk,2013-09-11 18:24:00,
2013-09-11 13:29:00,76.8,58.4,29.12,SW,225,5.0,-999.0,53,0.00,,,0.31,390,WeatherHawk,2013-09-11 18:29:00,
2013-09-11 13:34:00,76.8,57.9,29.12,SW,226,4.0,-999.0,52,0.00,,,0.31,533,WeatherHawk,2013-09-11 18:34:00,
2013-09-11 13:39:00,79.1,59.4,29.12,SW,229,4.0,-999.0,51,0.00,,,0.31,731,WeatherHawk,2013-09-11 18:39:00,
2013-09-11 13:44:00,77.3,57.2,29.12,SSW,194,3.0,-999.0,50,0.00,,,0.31,407,WeatherHawk,2013-09-11 18:44:00,
2013-09-11 14:09:00,78.3,55.2,29.11,SSW,200,11.0,-999.0,45,0.00,,,0.31,566,WeatherHawk,2013-09-11 19:09:00,
2013-09-11 14:14:00,80.8,56.2,29.11,WSW,248,4.0,-999.0,43,0.00,,,0.31,552,WeatherHawk,2013-09-11 19:14:00,
2013-09-11 14:19:00,79.6,53.8,29.11,WSW,245,9.0,-999.0,41,0.00,,,0.31,716,WeatherHawk,2013-09-11 19:19:00,
2013-09-11 14:24:00,81.0,56.4,29.12,SW,226,7.0,-999.0,43,0.00,,,0.31,487,WeatherHawk,2013-09-11 19:24:00,
2013-09-11 14:29:00,82.1,57.4,29.11,WNW,285,3.0,-999.0,43,0.00,,,0.31,740,WeatherHawk,2013-09-11 19:29:00,
2013-09-11 14:34:00,81.3,57.3,29.11,South,172,5.0,-999.0,44,0.00,,,0.31,679,WeatherHawk,2013-09-11 19:34:00,
2013-09-11 14:39:00,78.3,54.0,29.10,South,183,9.0,-999.0,43,0.00,,,0.31,375,WeatherHawk,2013-09-11 19:39:00,
2013-09-11 14:44:00,81.5,56.2,29.11,SW,223,9.0,-999.0,42,0.00,,,0.31,566,WeatherHawk,2013-09-11 19:44:00,
2013-09-11 14:49:00,78.9,54.5,29.11,SW,215,13.0,-999.0,43,0.00,,,0.31,480,WeatherHawk,2013-09-11 19:49:00,
2013-09-11 14:54:00,79.9,55.4,29.10,SW,228,7.0,-999.0,43,0.00,,,0.31,534,WeatherHawk,2013-09-11 19:54:00,
2013-09-11 14:59:00,79.3,55.5,29.10,SSW,209,8.0,-999.0,44,0.00,,,0.31,460,WeatherHawk,2013-09-11 19:59:00,
2013-09-11 15:04:00,78.9,54.4,29.11,SSW,213,10.0,-999.0,43,0.00,,,0.31,582,WeatherHawk,2013-09-11 20:04:00,
2013-09-11 15:09:00,79.4,54.2,29.10,SW,223,10.0,-999.0,42,0.00,,,0.31,516,WeatherHawk,2013-09-11 20:09:00,
2013-09-11 15:15:00,81.0,56.4,29.10,West,261,8.0,-999.0,43,0.00,,,0.31,638,WeatherHawk,2013-09-11 20:15:00,
2013-09-11 15:24:00,81.4,56.7,29.10,SW,216,8.0,-999.0,43,0.00,,,0.31,702,WeatherHawk,2013-09-11 20:24:00,
2013-09-11 15:29:00,79.3,54.2,29.09,South,188,11.0,-999.0,42,0.00,,,0.31,630,WeatherHawk,2013-09-11 20:29:00,
2013-09-11 15:34:00,80.0,54.9,29.09,SW,225,12.0,-999.0,42,0.00,,,0.31,381,WeatherHawk,2013-09-11 20:34:00,
2013-09-11 15:39:00,79.8,54.7,29.10,SW,229,8.0,-999.0,42,0.00,,,0.31,482,WeatherHawk,2013-09-11 20:39:00,
2013-09-11 15:44:00,80.3,55.1,29.10,SSW,213,10.0,-999.0,42,0.00,,,0.31,679,WeatherHawk,2013-09-11 20:44:00,
2013-09-11 15:49:00,80.0,52.1,29.09,West,264,11.0,-999.0,38,0.00,,,0.31,594,WeatherHawk,2013-09-11 20:49:00,
2013-09-11 15:54:00,81.1,52.3,29.10,WSW,237,13.0,-999.0,37,0.00,,,0.31,703,WeatherHawk,2013-09-11 20:54:00,
2013-09-11 15:59:00,82.1,52.4,29.10,SW,231,9.0,-999.0,36,0.00,,,0.31,508,WeatherHawk,2013-09-11 20:59:00,
2013-09-11 16:04:00,80.4,51.7,29.10,SW,222,7.0,-999.0,37,0.00,,,0.31,270,WeatherHawk,2013-09-11 21:04:00,
2013-09-11 16:09:00,79.7,51.9,29.10,SW,233,10.0,-999.0,38,0.00,,,0.31,281,WeatherHawk,2013-09-11 21:09:00,
2013-09-11 16:14:00,80.0,52.8,29.09,SW,231,6.0,-999.0,39,0.00,,,0.31,318,WeatherHawk,2013-09-11 21:14:00,
2013-09-11 16:19:00,80.2,55.0,29.09,WSW,246,8.0,-999.0,42,0.00,,,0.31,367,WeatherHawk,2013-09-11 21:19:00,
2013-09-11 16:24:00,79.3,54.8,29.09,SW,219,11.0,-999.0,43,0.00,,,0.31,469,WeatherHawk,2013-09-11 21:24:00,
2013-09-11 16:29:00,79.2,56.0,29.09,SSW,203,7.0,-999.0,45,0.00,,,0.31,509,WeatherHawk,2013-09-11 21:29:00,
2013-09-11 16:34:00,81.1,58.4,29.09,SSE,159,7.0,-999.0,46,0.00,,,0.31,387,WeatherHawk,2013-09-11 21:34:00,
2013-09-11 16:39:00,79.4,55.5,29.09,SSW,213,12.0,-999.0,44,0.00,,,0.31,377,WeatherHawk,2013-09-11 21:39:00,
2013-09-11 16:44:00,79.3,55.5,29.09,SW,232,10.0,-999.0,44,0.00,,,0.31,208,WeatherHawk,2013-09-11 21:44:00,
2013-09-11 16:49:00,79.5,55.7,29.09,SW,232,9.0,-999.0,44,0.00,,,0.31,247,WeatherHawk,2013-09-11 21:49:00,
2013-09-11 16:54:00,79.1,55.3,29.09,SSE,160,9.0,-999.0,44,0.00,,,0.31,300,WeatherHawk,2013-09-11 21:54:00,
2013-09-11 16:59:00,78.9,54.4,29.09,South,186,10.0,-999.0,43,0.00,,,0.31,296,WeatherHawk,2013-09-11 21:59:00,
2013-09-11 17:04:00,79.4,56.2,29.10,SW,231,7.0,-999.0,45,0.00,,,0.31,231,WeatherHawk,2013-09-11 22:04:00,
2013-09-11 17:09:00,80.1,56.8,29.08,SSW,213,6.0,-999.0,45,0.00,,,0.31,224,WeatherHawk,2013-09-11 22:09:00,
2013-09-11 17:14:00,79.5,56.2,29.09,SW,223,8.0,-999.0,45,0.00,,,0.31,306,WeatherHawk,2013-09-11 22:14:00,
2013-09-11 17:19:00,79.7,55.9,29.09,WSW,242,10.0,-999.0,44,0.00,,,0.31,352,WeatherHawk,2013-09-11 22:19:00,
2013-09-11 17:24:00,80.0,56.7,29.09,SW,225,6.0,-999.0,45,0.00,,,0.31,271,WeatherHawk,2013-09-11 22:24:00,
2013-09-11 17:29:00,79.1,55.9,29.09,SW,235,7.0,-999.0,45,0.00,,,0.31,188,WeatherHawk,2013-09-11 22:29:00,
2013-09-11 17:34:00,78.9,55.8,29.09,SW,223,6.0,-999.0,45,0.00,,,0.31,189,WeatherHawk,2013-09-11 22:34:00,
2013-09-11 17:39:00,78.7,56.2,29.09,SSW,207,7.0,-999.0,46,0.00,,,0.31,133,WeatherHawk,2013-09-11 22:39:00,
2013-09-11 17:44:00,78.9,58.1,29.08,WSW,255,3.0,-999.0,49,0.00,,,0.31,104,WeatherHawk,2013-09-11 22:44:00,
2013-09-11 17:49:00,78.5,57.7,29.08,SW,232,4.0,-999.0,49,0.00,,,0.31,219,WeatherHawk,2013-09-11 22:49:00,
2013-09-11 17:54:00,78.5,57.7,29.07,SSW,213,3.0,-999.0,49,0.00,,,0.31,140,WeatherHawk,2013-09-11 22:54:00,
2013-09-11 17:59:00,78.4,57.6,29.09,SSW,213,6.0,-999.0,49,0.00,,,0.31,157,WeatherHawk,2013-09-11 22:59:00,
2013-09-11 18:04:00,78.7,59.0,29.09,SSW,206,3.0,-999.0,51,0.00,,,0.31,129,WeatherHawk,2013-09-11 23:04:00,
2013-09-11 18:09:00,77.9,57.8,29.08,SW,230,8.0,-999.0,50,0.00,,,0.31,86,WeatherHawk,2013-09-11 23:09:00,
2013-09-11 18:14:00,77.8,58.7,29.08,SSW,210,5.0,-999.0,52,0.00,,,0.31,83,WeatherHawk,2013-09-11 23:14:00,
2013-09-11 18:19:00,77.9,59.4,29.08,SW,218,6.0,-999.0,53,0.00,,,0.31,89,WeatherHawk,2013-09-11 23:19:00,
2013-09-11 18:24:00,77.6,58.6,29.08,SW,219,9.0,-999.0,52,0.00,,,0.31,77,WeatherHawk,2013-09-11 23:24:00,
2013-09-11 18:29:00,77.9,59.4,29.08,WSW,252,5.0,-999.0,53,0.00,,,0.31,109,WeatherHawk,2013-09-11 23:29:00,
2013-09-11 18:34:00,77.5,59.6,29.08,WSW,243,5.0,-999.0,54,0.00,,,0.31,60,WeatherHawk,2013-09-11 23:34:00,
2013-09-11 18:39:00,77.3,59.9,29.07,WSW,254,1.0,-999.0,55,0.00,,,0.31,62,WeatherHawk,2013-09-11 23:39:00,
2013-09-11 18:44:00,77.1,60.1,29.08,South,184,2.0,-999.0,56,0.00,,,0.31,41,WeatherHawk,2013-09-11 23:44:00,
2013-09-11 18:49:00,76.5,60.1,29.07,South,182,3.0,-999.0,57,0.00,,,0.31,43,WeatherHawk,2013-09-11 23:49:00,
2013-09-11 18:54:00,76.5,60.1,29.08,SW,225,5.0,-999.0,57,0.00,,,0.31,32,WeatherHawk,2013-09-11 23:54:00,
2013-09-11 19:04:00,75.9,61.0,29.07,WSW,238,2.0,-999.0,60,0.00,,,0.31,18,WeatherHawk,2013-09-12 00:04:00,
2013-09-11 19:09:00,75.6,61.2,29.07,SW,221,4.0,-999.0,61,0.00,,,0.31,12,WeatherHawk,2013-09-12 00:09:00,
2013-09-11 19:14:00,75.8,61.4,29.07,South,179,5.0,-999.0,61,0.00,,,0.31,6,WeatherHawk,2013-09-12 00:14:00,
2013-09-11 19:19:00,75.2,61.3,29.07,SSW,204,6.0,-999.0,62,0.00,,,0.31,4,WeatherHawk,2013-09-12 00:19:00,
2013-09-11 19:24:00,75.0,61.5,29.07,WSW,248,4.0,-999.0,63,0.00,,,0.31,2,WeatherHawk,2013-09-12 00:24:00,
2013-09-11 19:29:00,74.9,61.9,29.07,WSW,237,1.0,-999.0,64,0.00,,,0.31,2,WeatherHawk,2013-09-12 00:29:00,
2013-09-11 19:34:00,74.0,61.4,29.07,SW,229,4.0,-999.0,65,0.00,,,0.31,0,WeatherHawk,2013-09-12 00:34:00,
2013-09-11 19:39:00,73.9,61.4,29.08,SW,224,3.0,-999.0,65,0.00,,,0.31,0,WeatherHawk,2013-09-12 00:39:00,
2013-09-11 19:44:00,73.7,62.0,29.07,SW,226,4.0,-999.0,67,0.00,,,0.31,0,WeatherHawk,2013-09-12 00:44:00,
2013-09-11 19:49:00,73.6,62.0,29.07,WSW,245,4.0,-999.0,67,0.00,,,0.31,0,WeatherHawk,2013-09-12 00:49:00,
2013-09-11 19:54:00,73.5,62.3,29.07,WSW,255,4.0,-999.0,68,0.00,,,0.31,0,WeatherHawk,2013-09-12 00:54:00,
2013-09-11 19:59:00,72.6,62.3,29.07,SSW,210,1.0,-999.0,70,0.00,,,0.31,0,WeatherHawk,2013-09-12 00:59:00,
2013-09-11 20:04:00,73.2,62.8,29.08,SSW,200,5.0,-999.0,70,0.00,,,0.31,0,WeatherHawk,2013-09-12 01:04:00,
2013-09-11 20:09:00,72.8,63.2,29.08,South,189,5.0,-999.0,72,0.00,,,0.31,0,WeatherHawk,2013-09-12 01:09:00,
2013-09-11 20:14:00,72.4,62.9,29.08,SSW,211,8.0,-999.0,72,0.00,,,0.31,0,WeatherHawk,2013-09-12 01:14:00,
2013-09-11 20:19:00,71.8,63.0,29.07,SSW,209,6.0,-999.0,74,0.00,,,0.31,0,WeatherHawk,2013-09-12 01:19:00,
2013-09-11 20:24:00,72.0,63.2,29.08,SSW,197,5.0,-999.0,74,0.00,,,0.31,0,WeatherHawk,2013-09-12 01:24:00,
2013-09-11 20:29:00,71.8,63.4,29.07,SSW,201,6.0,-999.0,75,0.00,,,0.31,0,WeatherHawk,2013-09-12 01:29:00,
2013-09-11 20:34:00,71.7,63.4,29.08,SW,214,4.0,-999.0,75,0.00,,,0.31,0,WeatherHawk,2013-09-12 01:34:00,
2013-09-11 20:39:00,71.5,63.2,29.08,SSW,212,6.0,-999.0,75,0.00,,,0.31,0,WeatherHawk,2013-09-12 01:39:00,
2013-09-11 20:44:00,71.8,63.8,29.08,SSW,209,4.0,-999.0,76,0.00,,,0.31,0,WeatherHawk,2013-09-12 01:44:00,
2013-09-11 20:49:00,71.9,63.5,29.08,SSW,204,4.0,-999.0,75,0.00,,,0.31,0,WeatherHawk,2013-09-12 01:49:00,
2013-09-11 20:54:00,71.8,62.6,29.08,South,184,4.0,-999.0,73,0.00,,,0.31,0,WeatherHawk,2013-09-12 01:54:00,
2013-09-11 20:59:00,71.8,62.3,29.09,SW,234,4.0,-999.0,72,0.00,,,0.31,0,WeatherHawk,2013-09-12 01:59:00,
2013-09-11 21:04:00,72.0,62.5,29.08,SW,214,5.0,-999.0,72,0.00,,,0.31,0,WeatherHawk,2013-09-12 02:04:00,
2013-09-11 21:09:00,71.1,61.6,29.08,SW,233,4.0,-999.0,72,0.00,,,0.31,0,WeatherHawk,2013-09-12 02:09:00,
2013-09-11 21:14:00,71.4,61.9,29.09,West,265,4.0,-999.0,72,0.00,,,0.31,0,WeatherHawk,2013-09-12 02:14:00,
2013-09-11 21:19:00,70.9,61.8,29.09,West,268,5.0,-999.0,73,0.00,,,0.31,0,WeatherHawk,2013-09-12 02:19:00,
2013-09-11 21:24:00,70.6,61.9,29.09,WSW,242,4.0,-999.0,74,0.00,,,0.31,0,WeatherHawk,2013-09-12 02:24:00,
2013-09-11 21:29:00,70.5,62.2,29.08,WSW,251,4.0,-999.0,75,0.00,,,0.31,0,WeatherHawk,2013-09-12 02:29:00,
2013-09-11 21:34:00,70.8,61.7,29.09,WSW,242,5.0,-999.0,73,0.00,,,0.31,0,WeatherHawk,2013-09-12 02:34:00,
2013-09-11 21:39:00,70.8,61.7,29.09,West,269,4.0,-999.0,73,0.00,,,0.31,0,WeatherHawk,2013-09-12 02:39:00,
2013-09-11 21:44:00,70.5,61.4,29.09,WNW,299,4.0,-999.0,73,0.00,,,0.31,0,WeatherHawk,2013-09-12 02:44:00,
2013-09-11 21:49:00,70.1,61.7,29.09,NW,313,1.0,-999.0,75,0.00,,,0.31,0,WeatherHawk,2013-09-12 02:49:00,
2013-09-11 21:54:00,69.7,61.8,29.10,WSW,258,0.0,-999.0,76,0.00,,,0.31,0,WeatherHawk,2013-09-12 02:54:00,
2013-09-11 21:59:00,68.9,61.3,29.10,WSW,246,1.0,-999.0,77,0.00,,,0.31,0,WeatherHawk,2013-09-12 02:59:00,
2013-09-11 22:04:00,69.9,61.9,29.10,WSW,249,3.0,-999.0,76,0.00,,,0.31,0,WeatherHawk,2013-09-12 03:04:00,
2013-09-11 22:09:00,69.4,60.8,29.10,WSW,257,3.0,-999.0,74,0.00,,,0.31,0,WeatherHawk,2013-09-12 03:09:00,
2013-09-11 22:14:00,69.1,60.5,29.09,SW,232,4.0,-999.0,74,0.00,,,0.31,0,WeatherHawk,2013-09-12 03:14:00,
2013-09-11 22:19:00,68.8,60.1,29.10,WSW,254,4.0,-999.0,74,0.00,,,0.31,0,WeatherHawk,2013-09-12 03:19:00,
2013-09-11 22:24:00,68.0,59.8,29.09,West,262,3.0,-999.0,75,0.00,,,0.31,0,WeatherHawk,2013-09-12 03:24:00,
2013-09-11 22:29:00,68.1,60.6,29.10,West,261,2.0,-999.0,77,0.00,,,0.31,0,WeatherHawk,2013-09-12 03:29:00,
2013-09-11 22:34:00,67.3,59.8,29.11,West,266,0.0,-999.0,77,0.00,,,0.31,0,WeatherHawk,2013-09-12 03:34:00,
2013-09-11 22:39:00,67.0,60.3,29.10,West,263,0.0,-999.0,79,0.00,,,0.31,0,WeatherHawk,2013-09-12 03:39:00,
2013-09-11 22:44:00,68.8,60.1,29.10,West,274,2.0,-999.0,74,0.00,,,0.31,0,WeatherHawk,2013-09-12 03:44:00,
2013-09-11 22:49:00,68.6,59.2,29.11,West,272,2.0,-999.0,72,0.00,,,0.31,0,WeatherHawk,2013-09-12 03:49:00,
2013-09-11 22:54:00,67.5,59.3,29.10,West,267,0.0,-999.0,75,0.00,,,0.31,0,WeatherHawk,2013-09-12 03:54:00,
2013-09-11 22:59:00,67.2,59.7,29.10,West,265,2.0,-999.0,77,0.00,,,0.31,0,WeatherHawk,2013-09-12 03:59:00,
2013-09-11 23:04:00,67.4,59.9,29.10,West,262,0.0,-999.0,77,0.00,,,0.31,0,WeatherHawk,2013-09-12 04:04:00,
2013-09-11 23:09:00,67.4,59.6,29.10,West,261,0.0,-999.0,76,0.00,,,0.31,0,WeatherHawk,2013-09-12 04:09:00,
2013-09-11 23:14:00,66.8,59.3,29.10,WSW,254,2.0,-999.0,77,0.00,,,0.31,0,WeatherHawk,2013-09-12 04:14:00,
2013-09-11 23:19:00,67.2,59.4,29.10,WSW,256,0.0,-999.0,76,0.00,,,0.31,0,WeatherHawk,2013-09-12 04:19:00,
2013-09-11 23:24:00,67.5,59.7,29.10,WSW,253,2.0,-999.0,76,0.00,,,0.31,0,WeatherHawk,2013-09-12 04:24:00,
2013-09-11 23:29:00,67.3,58.7,29.11,WSW,244,1.0,-999.0,74,0.00,,,0.31,0,WeatherHawk,2013-09-12 04:29:00,
2013-09-11 23:34:00,67.0,58.8,29.10,WSW,244,0.0,-999.0,75,0.00,,,0.31,0,WeatherHawk,2013-09-12 04:34:00,
2013-09-11 23:39:00,67.1,58.2,29.10,West,260,2.0,-999.0,73,0.00,,,0.31,0,WeatherHawk,2013-09-12 04:39:00,
2013-09-11 23:44:00,67.7,58.3,29.10,WSW,237,1.0,-999.0,72,0.00,,,0.31,0,WeatherHawk,2013-09-12 04:44:00,
2013-09-11 23:49:00,67.8,58.0,29.10,SSW,212,0.0,-999.0,71,0.00,,,0.31,0,WeatherHawk,2013-09-12 04:49:00,
2013-09-11 23:54:00,67.8,57.6,29.10,SW,217,0.0,-999.0,70,0.00,,,0.31,1,WeatherHawk,2013-09-12 04:54:00,